Date String (YYYY-MM-DD hh:mm:ss) UTC,Instrument flags,Ambient pressure (hPa),Sample flow (lpm),Bypass flow (lpm),Sample temperature (°C),Ambient temperature (°C),ASC tube jacket temperature (°C),LED temperature (°C),Box temperature (°C),Sample RH (%),Span deviation,Mass concentration (μg/m³),Mass concentration (μg/m³),Mass concentration (μg/m³)
DateTimeUTC,F1_M11,P_M11,Q1_M11,Q2_M11,T1_M11,T2_M11,T3_M11,T4_M11,T5_M11,U1_M11,ZSPAN_M11,X0_M11,X2_M11,X1_M11
2022-12-30 19:00:00,,0817.3,4.97,0.00,24.0,22.7,00.0,32.9,25.8,08.3,0000.0,0004.87,0001.66,0001.24
2022-12-30 19:01:00,,0817.3,5.02,0.00,24.0,22.6,00.0,32.9,25.7,08.5,0000.0,0005.31,0001.86,0001.42
2022-12-30 19:02:00,,0817.2,5.03,0.00,24.0,22.6,00.0,32.9,25.6,08.6,0000.0,0007.40,0002.10,0001.60
2022-12-30 19:03:00,,0817.2,5.00,0.00,23.9,22.5,00.0,32.8,25.6,08.8,0000.0,0007.68,0002.30,0001.72
2022-12-30 19:04:00,,0817.0,4.98,0.00,23.9,22.5,00.0,32.8,25.6,09.0,0000.0,0007.60,0002.48,0001.85
2022-12-30 19:05:00,,0817.1,5.02,0.00,23.9,22.5,00.0,32.8,25.6,09.1,0000.0,0007.91,0002.72,0002.03
2022-12-30 19:06:00,,0817.1,5.00,0.00,23.9,22.5,00.0,32.8,25.6,09.2,0000.0,0008.21,0002.93,0002.22
2022-12-30 19:07:00,,0817.1,5.01,0.00,23.9,22.5,00.0,32.8,25.6,09.4,0000.0,0008.27,0003.12,0002.42
2022-12-30 19:08:00,,0817.1,5.01,0.00,23.8,22.4,00.0,32.8,25.5,09.4,0000.0,0008.51,0003.27,0002.63
2022-12-30 19:09:00,,0817.0,4.97,0.00,23.8,22.2,00.0,32.8,25.5,09.5,0000.0,0008.73,0003.42,0002.84
2022-12-30 19:10:00,,0816.9,4.98,0.00,23.8,22.2,00.0,32.8,25.5,08.0,0000.0,0008.62,0003.47,0002.92
2022-12-30 19:11:00,,0816.9,5.00,0.00,23.8,22.2,00.0,32.7,25.5,05.8,0000.0,0008.46,0003.39,0002.79
2022-12-30 19:12:00,,0817.0,5.00,0.00,23.8,22.3,00.0,32.7,25.5,05.6,0000.0,0008.29,0003.28,0002.61
2022-12-30 19:13:00,,0817.2,4.99,0.00,23.8,22.3,00.0,32.7,25.5,06.6,0000.0,0007.28,0003.17,0002.46
2022-12-30 19:14:00,,0817.0,5.03,0.00,23.8,22.4,00.0,32.7,25.5,09.1,0000.0,0007.77,0003.41,0002.87
2022-12-30 19:15:00,,0817.1,5.00,0.00,23.8,22.5,00.0,32.7,25.5,09.2,0000.0,0008.29,0003.69,0003.23
2022-12-30 19:16:00,,0817.1,4.96,0.00,23.8,22.5,00.0,32.7,25.5,09.1,0000.0,0009.00,0003.88,0003.39
2022-12-30 19:17:00,,0817.0,4.99,0.00,23.8,22.6,00.0,32.7,25.6,08.0,0000.0,0008.77,0003.85,0003.35
2022-12-30 19:18:00,,0817.1,4.99,0.00,23.8,22.6,00.0,32.7,25.6,08.3,0000.0,0008.37,0003.78,0003.30
2022-12-30 19:19:00,,0817.3,5.02,0.00,23.9,22.6,00.0,32.7,25.6,08.5,0000.0,0008.55,0003.78,0003.31
2022-12-30 19:20:00,,0816.9,5.00,0.00,23.9,22.6,00.0,32.7,25.7,09.0,0000.0,0009.19,0003.83,0003.36
2022-12-30 19:21:00,,0817.0,5.00,0.00,23.9,22.6,00.0,32.7,25.7,09.1,0000.0,0009.75,0003.93,0003.47
2022-12-30 19:22:00,,0817.0,4.97,0.00,23.9,22.7,00.0,32.7,25.6,09.2,0000.0,0010.10,0004.16,0003.68
2022-12-30 19:23:00,,0817.0,4.97,0.00,23.9,22.7,00.0,32.7,25.6,09.3,0001.0,0010.66,0004.52,0003.99
2022-12-30 19:24:00,,0816.9,5.05,0.00,23.9,22.7,00.0,32.7,25.6,08.8,0003.0,0010.79,0004.74,0004.22
2022-12-30 19:25:00,,0816.6,5.02,0.00,23.9,22.7,00.0,32.7,25.6,08.2,0001.7,0010.26,0004.57,0004.08
2022-12-30 19:26:00,,0816.7,4.98,0.00,24.0,22.7,00.0,32.7,25.6,07.9,0000.4,0009.87,0004.26,0003.81
2022-12-30 19:27:00,,0816.7,5.00,0.00,24.0,22.8,00.0,32.7,25.7,07.0,0000.0,0008.71,0003.93,0003.52
2022-12-30 19:28:00,,0816.9,5.02,0.00,24.0,22.8,00.0,32.8,25.7,06.8,0000.0,0008.41,0003.75,0003.39
2022-12-30 19:29:00,,0817.0,5.02,0.00,24.0,22.8,00.0,32.8,25.7,06.9,0000.0,0008.37,0003.71,0003.35
2022-12-30 19:30:00,,0816.8,4.96,0.00,24.0,22.8,00.0,32.8,25.7,07.1,0000.0,0008.17,0003.61,0003.25
2022-12-30 19:31:00,,0816.9,5.01,0.00,24.1,22.9,00.0,32.8,25.8,08.4,0000.0,0007.25,0003.53,0003.21
2022-12-30 19:32:00,,0816.9,5.02,0.00,24.1,22.9,00.0,32.8,25.8,09.0,0000.0,0006.94,0003.53,0003.21
2022-12-30 19:33:00,,0816.9,5.02,0.00,24.1,22.9,00.0,32.8,25.8,09.2,0000.0,0008.23,0003.66,0003.29
2022-12-30 19:34:00,,0816.8,4.98,0.00,24.1,22.9,00.0,32.8,25.8,09.3,0000.0,0008.29,0003.75,0003.36
2022-12-30 19:35:00,,0817.1,4.97,0.00,24.1,22.9,00.0,32.8,25.9,09.1,0000.0,0009.64,0004.01,0003.59
2022-12-30 19:36:00,,0817.0,4.99,0.00,24.1,23.0,00.0,32.8,25.9,09.1,0000.0,0010.99,0004.39,0003.94
2022-12-30 19:37:00,,0816.6,5.08,0.00,24.1,23.0,00.0,32.9,25.9,08.9,0000.0,0011.87,0004.80,0004.33
2022-12-30 19:38:00,,0816.7,5.00,0.00,24.2,23.0,00.0,32.9,26.0,09.0,0000.8,0012.61,0005.36,0004.87
2022-12-30 19:39:00,,0816.5,5.00,0.00,24.2,23.0,00.0,32.9,26.0,09.1,0003.0,0013.53,0006.00,0005.48
2022-12-30 19:40:00,,0816.5,4.97,0.00,24.2,23.1,00.0,32.9,26.0,09.0,0003.1,0014.87,0006.68,0006.08
2022-12-30 19:41:00,,0816.5,5.04,0.00,24.2,23.1,00.0,32.9,26.0,08.8,0002.9,0016.01,0007.25,0006.65
2022-12-30 19:42:00,,0816.5,5.01,0.00,24.2,23.1,00.0,32.9,26.0,08.8,0002.9,0017.17,0007.76,0007.11
2022-12-30 19:43:00,,0816.5,5.03,0.00,24.3,23.1,00.0,32.9,26.0,08.8,0002.5,0017.29,0008.11,0007.46
2022-12-30 19:44:00,,0816.5,4.98,0.00,24.3,23.1,00.0,33.0,26.0,08.7,0002.3,0016.47,0008.33,0007.69
2022-12-30 19:45:00,,0816.4,4.98,0.00,24.3,23.1,00.0,33.0,26.0,08.7,0002.4,0016.94,0008.48,0007.87
2022-12-30 19:46:00,,0816.4,4.97,0.00,24.3,23.2,00.0,33.0,26.1,08.6,0002.5,0016.11,0008.41,0007.85
2022-12-30 19:47:00,,0816.4,4.99,0.00,24.3,23.2,00.0,33.0,26.1,08.0,0002.7,0015.02,0008.39,0007.84
2022-12-30 19:48:00,,0816.5,5.06,0.00,24.3,23.2,00.0,33.0,26.1,07.2,0002.8,0014.39,0008.17,0007.62
2022-12-30 19:49:00,,0816.5,5.00,0.00,24.3,23.2,00.0,33.0,26.1,07.7,0002.8,0014.61,0008.02,0007.49
2022-12-30 19:50:00,,0816.4,4.99,0.00,24.3,23.2,00.0,33.0,26.2,07.8,0002.9,0014.58,0007.81,0007.27
2022-12-30 19:51:00,,0816.4,4.99,0.00,24.3,23.2,00.0,33.1,26.1,07.9,0001.8,0013.89,0007.44,0006.95
2022-12-30 19:52:00,,0816.4,4.98,0.00,24.4,23.2,00.0,33.1,26.1,08.6,0000.5,0013.37,0007.29,0006.79
2022-12-30 19:53:00,,0816.4,4.97,0.00,24.4,23.2,00.0,33.1,26.2,08.8,0000.7,0012.77,0007.25,0006.74
2022-12-30 19:54:00,,0816.4,4.99,0.00,24.4,23.2,00.0,33.1,26.2,09.0,0000.0,0013.09,0007.25,0006.75
2022-12-30 19:55:00,,0816.4,5.07,0.00,24.4,23.2,00.0,33.1,26.1,09.4,0000.0,0013.23,0007.28,0006.79
2022-12-30 19:56:00,,0816.4,4.99,0.00,24.4,23.2,00.0,33.1,26.1,09.2,0000.2,0013.37,0007.40,0006.87
2022-12-30 19:57:00,,0816.4,4.99,0.00,24.4,23.2,00.0,33.1,26.1,09.0,0000.6,0014.12,0007.49,0006.93
2022-12-30 19:58:00,,0816.5,4.97,0.00,24.4,23.2,00.0,33.1,26.1,08.9,0000.0,0014.73,0007.57,0006.99
2022-12-30 19:59:00,,0816.5,4.99,0.00,24.4,23.2,00.0,33.1,26.2,08.7,0000.0,0015.42,0007.83,0007.20
